Dewpoint
49 52 53 53 58 61 63 65 65 69 69 70 69 70 69 68 68 67 65 71 70 71 73 72 71 72 71 70 71 69 68 71 71 70 70 70 71 70 68 70 70 72 73
48 50 52 53 57 61 62 65 66 71 70 70 69 69 69 68 67 66 66 67 70 71 71 72 70 70 71 72 73 73 71 71 71 68 67 66 67 68 68 67 68 69 71
49 49 51 53 56 62 64 66 69 70 70 70 70 71 69 68 68 67 66 69 69 70 70 71 72 70 70 71 72 73 72 71 71 71 68 64 63 66 67 64 66 68 71
51 50 51 53 54 60 66 66 69 71 70 71 69 70 70 67 68 69 68 69 70 70 70 71 72 73 73 71 70 71 72 73 70 70 71 70 69 63 64 68 69 69 68
53 52 52 53 53 59 63 68 68 72 69 70 72 70 71 69 70 71 68 69 71 69 69 70 71 72 73 72 72 72 73 73 71 71 70 69 70 69 67 64 67 69 69
51 54 53 53 53 57 62 68 68 70 72 70 71 72 70 70 70 70 69 69 71 73 70 70 71 72 73 73 72 73 72 72 72 73 72 70 68 68 67 66 66 67 68
46 50 55 55 55 56 61 65 68 70 72 73 73 71 73 74 73 71 72 71 71 70 71 72 71 72 72 73 74 73 74 74 73 72 71 71 70 70 70 67 66 64 60
49 52 53 58 57 58 60 63 68 69 70 73 72 74 73 73 74 73 72 73 72 70 70 72 72 72 73 74 74 74 73 72 74 73 73 72 72 72 70 69 66 64 66
55 55 56 59 60 60 60 62 69 69 70 70 74 75 75 74 73 74 74 72 72 72 71 70 69 73 73 74 74 73 72 73 74 73 73 73 73 73 72 71 69 67 65
55 57 58 57 59 62 63 63 68 70 71 73 72 73 75 73 74 75 71 67 68 72 73 75 74 75 75 75 74 72 72 72 73 74 72 73 73 73 72 71 70 69 67
55 56 57 58 60 62 64 66 68 70 71 72 73 73 71 66 69 73 74 72 72 73 73 73 75 75 75 75 74 73 73 74 74 73 73 73 72 72 71 72 72 71 69
53 55 57 59 62 62 62 65 66 69 72 71 70 68 67 65 64 66 67 73 73 73 74 74 75 75 76 75 75 73 71 73 72 73 72 70 71 68 68 68 68 69 71
62 63 65 66 66 65 64 65 67 68 69 70 72 71 73 74 74 75 75 76 75 76 76 75 75 75 75 75 74 74 74 72 71 72 71 69 68 67 67 66 68 70 71
64 64 64 64 64 63 63 62 62 63 65 66 67 68 70 72 72 73 74 75 76 76 76 76 75 75 75 75 74 73 73 71 71 70 70 69 68 66 66 67 67 68 67
61 61 61 62 62 63 61 62 62 63 63 63 64 65 67 68 70 71 72 73 73 74 75 76 75 75 76 75 73 73 72 71 69 70 69 68 68 67 66 66 65 66 65
59 60 61 59 61 59 60 61 61 61 62 62 63 64 65 65 66 68 69 70 71 71 71 72 73 73 75 70 70 71 70 69 69 68 68 67 67 66 66 66 67 66 66
61 61 60 58 57 60 61 61 61 62 63 64 64 65 66 66 66 66 66 66 68 70 71 71 71 72 73 67 67 69 70 69 69 68 68 67 66 66 64 64 65 65 65
61 57 56 57 58 59 60 60 60 61 62 62 62 62 62 62 63 63 63 64 65 66 69 69 70 70 71 65 64 66 69 70 69 69 67 66 66 66 64 62 61 55 57
60 58 57 59 59 59 60 60 60 60 60 59 60 61 61 62 62 62 62 62 63 64 66 68 69 69 68 62 62 65 68 69 68 68 68 66 64 59 61 64 54 52 52
56 54 56 58 60 60 60 59 59 58 58 59 61 60 60 60 60 61 61 61 61 62 65 65 67 67 66 60 60 63 68 67 64 61 64 64 59 56 59 58 54 51 51
55 55 58 59 60 61 60 58 57 55 58 59 57 57 58 58 57 57 59 61 61 62 63 64 66 66 64 63 59 60 66 65 61 57 56 55 53 52 55 59 54 53 55
56 57 59 60 61 60 59 57 55 58 58 57 58 59 58 57 55 55 55 58 61 61 62 63 63 62 61 59 58 58 60 61 63 56 57 54 51 51 54 55 57 56 59
56 57 59 59 60 59 58 56 56 58 57 56 57 57 57 56 54 52 51 56 57 62 61 62 60 58 58 57 57 57 59 61 62 59 56 54 52 52 52 53 53 54 54
58 59 58 58 58 58 58 57 56 58 57 55 55 55 55 56 55 52 50 51 50 55 61 57 56 56 57 58 58 58 58 56 57 55 53 54 57 55 54 50 50 49 50
56 58 58 58 57 57 57 56 56 56 56 55 53 53 53 54 54 54 50 49 48 48 54 54 54 54 53 49 49 53 57 57 55 56 56 54 53 49 49 54 48 48 51
58 58 57 58 57 57 57 57 57 56 55 54 52 52 52 52 53 52 52 51 49 47 46 45 50 50 46 46 46 46 47 48 52 56 54 53 52 49 52 53 50 46 52
Lifted_Index
3 3 3 3 2 1 1 0 -1 -2 -3 -3 -3 -3 -3 -2 -2 -1 -1 -1 -2 -3 -4 -4 -4 -4 -4 -5 -5 -5 -5 -5 -5 -4 -4 -3 -3 -2 -2 -2 -1 -2 -3
2 2 3 3 2 1 0 -0 -1 -3 -4 -4 -4 -3 -3 -3 -2 -1 -1 -1 -3 -3 -4 -4 -4 -4 -4 -5 -5 -5 -5 -5 -5 -5 -4 -3 -3 -2 -2 -1 -1 -1 -2
1 1 2 2 1 0 -1 -2 -3 -4 -4 -4 -4 -4 -4 -3 -3 -2 -2 -2 -3 -3 -4 -4 -5 -5 -5 -5 -5 -6 -6 -5 -5 -5 -5 -4 -3 -3 -2 -1 -1 -1 -2
0 0 1 1 0 -0 -1 -3 -4 -5 -5 -5 -5 -5 -4 -4 -4 -3 -3 -3 -4 -4 -4 -4 -5 -6 -6 -6 -6 -6 -6 -6 -6 -5 -5 -5 -4 -4 -3 -2 -2 -2 -2
0 0 -0 -0 -1 -1 -1 -3 -4 -5 -5 -5 -6 -5 -5 -5 -5 -5 -4 -4 -4 -5 -5 -5 -5 -6 -6 -6 -6 -6 -6 -6 -6 -6 -6 -5 -5 -5 -4 -4 -3 -3 -2
0 0 0 -0 -1 -1 -1 -2 -4 -5 -5 -6 -6 -6 -6 -6 -6 -6 -5 -5 -5 -5 -5 -5 -6 -6 -7 -7 -7 -7 -7 -7 -7 -7 -7 -6 -6 -5 -5 -4 -4 -3 -3
1 0 0 -0 -1 -1 -1 -2 -3 -4 -5 -6 -6 -6 -7 -7 -7 -7 -7 -6 -6 -6 -6 -6 -6 -7 -7 -7 -7 -7 -7 -7 -7 -7 -7 -7 -7 -6 -5 -5 -4 -4 -3
0 0 -0 -1 -1 -1 -1 -2 -3 -4 -4 -5 -6 -7 -7 -8 -8 -8 -8 -7 -7 -7 -7 -6 -6 -7 -8 -8 -8 -8 -7 -8 -8 -8 -8 -8 -7 -7 -6 -6 -5 -4 -4
-1 -1 -1 -1 -1 -1 -1 -2 -3 -3 -4 -5 -6 -7 -8 -8 -8 -8 -8 -8 -7 -7 -8 -7 -7 -8 -8 -9 -8 -8 -7 -7 -7 -8 -8 -8 -8 -7 -7 -6 -5 -4 -4
-2 -2 -2 -2 -2 -2 -2 -2 -3 -4 -4 -5 -6 -6 -7 -8 -8 -8 -9 -8 -7 -7 -8 -9 -9 -9 -9 -9 -9 -8 -7 -7 -7 -8 -8 -8 -7 -7 -7 -6 -6 -5 -5
-2 -2 -2 -2 -3 -3 -3 -3 -4 -5 -5 -6 -6 -6 -6 -7 -7 -7 -8 -8 -8 -8 -9 -9 -9 -9 -9 -9 -9 -8 -7 -7 -7 -7 -8 -7 -7 -6 -6 -5 -5 -5 -5
-2 -3 -3 -3 -3 -3 -4 -4 -5 -5 -6 -6 -6 -6 -6 -6 -6 -6 -7 -8 -8 -9 -10 -10 -10 -9 -9 -9 -8 -8 -7 -7 -7 -7 -7 -7 -6 -5 -4 -3 -3 -4 -4
-3 -4 -4 -4 -4 -4 -4 -4 -4 -5 -5 -5 -5 -5 -6 -6 -6 -7 -7 -8 -9 -9 -10 -10 -10 -9 -9 -9 -8 -8 -7 -7 -7 -7 -7 -6 -5 -4 -2 -2 -2 -3 -4
-4 -4 -4 -4 -4 -4 -4 -4 -4 -4 -3 -3 -3 -4 -4 -5 -5 -6 -7 -7 -8 -9 -9 -9 -9 -9 -9 -9 -9 -8 -7 -7 -6 -6 -6 -5 -4 -3 -1 -1 -2 -3 -4
-4 -4 -4 -4 -4 -3 -3 -3 -3 -2 -1 -1 -1 -1 -1 -2 -3 -4 -5 -6 -7 -7 -7 -8 -8 -8 -9 -9 -9 -8 -8 -7 -6 -6 -5 -4 -3 -2 -1 -1 -1 -2 -3
-3 -3 -2 -2 -2 -1 -1 -1 -0 -0 0 1 1 0 -0 -1 -1 -2 -3 -4 -5 -6 -6 -6 -6 -7 -8 -8 -8 -8 -8 -7 -6 -5 -4 -3 -2 -2 -1 -1 -1 -1 -2
-2 -1 -1 -1 -0 0 1 1 1 1 1 1 0 0 -0 -0 -1 -1 -1 -2 -3 -4 -5 -5 -5 -5 -6 -7 -7 -7 -7 -6 -5 -4 -3 -2 -2 -1 -0 -0 -1 -1 -1
-1 -1 -0 0 1 1 2 2 2 1 1 1 1 1 1 1 0 0 -0 -0 -1 -2 -3 -4 -4 -4 -5 -6 -6 -6 -6 -5 -4 -3 -3 -2 -1 -1 -0 0 0 -0 -1
-1 -1 -0 0 1 1 2 2 2 2 2 2 2 2 2 2 2 2 1 1 1 0 -1 -2 -3 -3 -4 -4 -5 -5 -5 -4 -3 -3 -3 -2 -1 -0 -0 0 1 1 0
-1 -0 0 1 1 2 2 2 2 3 3 3 3 3 3 3 2 2 2 2 2 1 0 -0 -1 -2 -3 -3 -4 -3 -3 -3 -3 -2 -2 -1 -1 -0 -0 0 1 2 2
-0 0 1 1 1 2 2 3 3 4 4 4 4 4 3 3 3 3 2 2 2 2 1 1 -0 -1 -2 -2 -2 -2 -2 -2 -2 -2 -1 -1 -1 -0 -0 0 1 2 3
0 0 1 1 1 2 2 3 4 4 4 5 5 4 4 4 3 3 2 2 2 2 2 1 1 -0 -1 -1 -1 -1 -1 -1 -1 -1 -1 -1 -1 -0 -0 0 1 2 3
0 0 0 0 1 2 2 3 4 4 4 5 5 5 4 4 4 3 3 2 2 1 1 1 1 1 0 -0 -1 -1 -1 -1 -1 -1 -0 0 1 1 1 2 2 3 4
-0 -0 0 0 1 2 2 3 3 3 4 5 6 5 5 5 4 4 4 3 2 2 1 1 1 1 1 1 0 -0 -1 -1 -0 1 2 3 4 4 4 4 4 4 4
-0 -0 0 0 1 2 2 3 3 3 4 5 6 6 5 5 5 5 5 5 4 3 2 2 2 2 2 2 1 1 1 1 1 3 4 5 6 6 6 5 5 5 5
-0 -0 0 0 1 2 2 3 3 3 4 5 6 6 6 5 5 5 5 5 5 4 4 3 3 3 2 2 2 2 2 2 3 4 6 7 7 7 6 6 6 6 6